Wind_Speed
34 33 32 30 29 28 27 26 26 25 25 24 24 24 23 23 23 23 23 24 24 25 25 26 26 27 27 28 29 30 30 31 31 32 33 34 35 35 36 37 36 36 36
37 35 34 32 31 30 29 29 28 28 27 27 27 26 26 26 26 26 26 26 26 27 27 27 28 28 29 30 31 32 32 32 32 33 34 35 36 36 37 37 37 37 37
39 38 36 35 33 32 32 31 30 30 30 29 29 28 28 28 28 28 28 28 28 28 28 28 29 30 31 31 32 32 32 32 33 35 35 36 37 37 38 38 38 37 37
41 40 38 37 36 35 34 33 32 32 32 32 31 31 30 30 30 30 30 30 30 30 29 30 31 31 32 32 33 33 34 34 35 36 37 38 38 38 39 39 38 38 37
43 42 40 39 38 37 37 36 35 34 33 33 34 33 32 32 32 32 32 32 32 31 32 32 32 33 33 34 34 35 35 36 37 38 38 38 39 40 40 40 40 39 38
46 44 42 41 40 39 39 38 37 36 35 35 35 35 34 34 34 34 34 34 34 34 34 34 34 34 35 35 35 36 36 37 38 39 39 40 41 41 41 41 40 40 39
47 46 44 43 42 41 41 40 39 39 37 36 36 36 36 37 37 37 36 36 36 37 37 37 36 36 36 36 37 37 38 39 40 40 41 41 42 42 42 41 41 40 39
49 48 46 45 44 43 42 41 40 40 39 39 39 39 39 39 39 39 39 39 39 39 39 38 38 37 38 38 39 40 40 41 42 42 42 42 43 43 43 42 42 41 39
51 50 49 48 46 45 44 42 42 42 42 41 41 41 40 40 40 40 41 41 41 41 40 40 39 40 40 40 40 41 42 42 43 43 44 44 44 44 44 43 42 41 39
52 51 50 49 48 47 45 44 43 42 42 43 42 41 41 42 42 41 42 42 42 41 41 41 41 42 41 41 42 42 42 43 44 45 45 46 45 44 44 43 43 41 39
50 50 51 49 47 47 47 46 46 45 45 44 44 43 43 44 44 44 43 42 41 41 42 42 42 42 42 42 42 43 43 44 45 46 46 46 46 45 45 44 43 41 39
49 50 49 49 49 49 49 48 47 46 46 46 46 45 44 44 45 44 43 42 41 41 42 42 41 41 41 41 42 43 44 45 46 46 46 46 46 46 45 44 43 41 39
48 49 49 49 48 48 48 49 47 47 47 46 46 46 46 46 46 44 43 42 41 41 41 42 42 41 42 43 44 45 45 45 45 46 47 47 47 46 45 44 42 40 38
47 48 48 48 48 48 49 50 49 48 46 46 47 48 47 46 45 43 42 42 41 41 42 42 42 42 44 45 45 45 45 45 45 46 47 47 46 45 44 42 41 39 36
46 46 47 48 48 47 48 48 49 47 46 47 48 47 46 44 45 43 43 44 43 42 42 42 43 44 45 45 45 45 45 45 45 46 46 45 44 43 42 41 39 36 34
45 45 47 47 47 48 48 48 48 46 46 45 45 45 44 45 44 44 43 42 43 43 43 43 44 44 44 44 44 44 44 44 45 45 45 44 43 42 40 39 36 34 33
44 43 45 46 47 47 48 47 46 46 48 48 47 46 46 45 45 45 44 43 43 44 44 43 43 43 43 43 43 43 43 43 43 43 43 43 41 40 38 37 35 33 32
44 45 46 47 47 48 49 49 48 48 49 49 48 48 47 46 46 46 45 44 45 45 44 43 42 42 43 43 43 43 43 42 42 42 42 40 39 38 36 35 33 32 31
44 47 48 48 50 50 50 50 50 50 50 49 48 48 48 48 47 47 46 46 46 45 44 43 43 43 43 42 42 42 42 42 42 41 40 38 37 36 34 33 32 30 29
42 44 45 47 48 49 49 48 49 49 50 49 48 49 50 50 49 48 47 46 45 44 43 43 42 42 42 42 42 41 41 41 40 39 38 37 36 34 33 31 29 28 27
41 42 43 44 46 47 47 47 49 50 50 50 50 50 50 50 49 47 46 45 44 43 43 42 42 41 41 41 40 40 40 39 38 37 36 35 34 32 30 29 27 26 25
41 41 42 43 45 46 47 47 48 48 48 49 49 48 47 47 46 46 45 44 43 43 43 42 41 40 40 39 39 38 38 37 36 35 35 33 32 31 29 28 26 25 25
41 42 43 43 44 45 46 46 47 48 47 47 47 46 45 44 44 44 44 44 43 43 42 41 40 39 39 39 38 37 37 36 35 34 33 32 31 29 28 27 26 25 25
41 42 43 43 43 44 44 44 45 46 46 46 46 46 46 44 44 44 44 44 43 42 41 40 39 39 39 38 38 37 36 35 34 33 32 31 29 28 28 27 26 25 24
42 42 42 43 43 44 44 44 45 45 45 45 45 45 44 44 44 43 43 43 42 41 40 40 39 39 38 38 38 37 36 35 34 32 31 29 28 28 27 27 25 24 24
40 40 41 41 41 42 43 43 43 43 43 43 44 43 43 44 43 42 42 42 41 41 40 39 38 37 37 37 36 36 35 34 33 31 30 29 28 27 27 26 25 25 24
Wind_Direction
243 243 245 247 249 250 251 253 253 253 254 255 256 258 260 261 264 267 270 274 278 282 285 289 293 296 299 302 304 306 307 309 311 312 313 314 315 317 318 318 318 318 318
242 243 245 247 249 250 251 252 253 254 255 256 257 258 260 262 264 267 271 274 278 281 285 289 292 296 298 301 303 304 305 307 309 311 312 313 313 315 316 317 315 316 316
242 243 244 247 249 250 251 252 253 254 255 256 257 258 260 263 266 269 271 274 277 281 284 288 291 294 297 300 302 304 305 307 308 310 311 311 312 313 314 314 314 314 314
242 243 245 247 249 250 251 253 254 255 256 257 258 259 261 263 266 269 271 274 277 279 282 286 290 293 296 299 300 302 304 305 306 308 309 310 310 311 312 312 312 312 312
241 243 245 248 251 251 252 253 254 255 256 257 259 260 262 264 267 269 272 274 276 278 282 285 289 292 295 297 299 301 302 304 305 307 307 308 309 310 310 310 310 310 309
241 243 245 248 251 252 253 254 254 255 257 258 260 262 263 265 267 270 272 274 276 279 282 285 288 290 293 296 298 300 301 303 304 305 306 306 307 308 308 308 308 308 307
241 243 244 247 250 252 254 255 255 256 257 258 261 263 264 266 268 269 271 274 276 280 282 285 286 289 292 294 296 298 300 302 303 304 304 305 306 306 307 306 306 305 305
241 243 245 248 250 252 253 255 256 256 258 260 262 264 265 266 268 270 272 274 277 279 282 284 286 288 291 293 296 298 300 301 302 303 304 305 305 306 306 305 304 303 302
242 244 246 248 250 252 254 256 258 259 260 262 264 265 267 267 267 269 271 274 276 278 281 283 285 287 290 292 295 297 298 300 301 302 303 304 304 304 304 303 302 301 300
243 246 247 248 252 254 256 257 259 260 261 262 264 266 266 267 268 270 272 273 275 278 280 282 284 286 288 291 294 296 298 299 300 300 301 302 303 302 301 300 300 299 298
244 246 247 249 251 254 258 260 260 261 262 262 264 265 265 267 269 271 272 273 275 277 279 281 283 285 288 291 294 296 297 298 298 299 300 301 301 301 300 298 298 297 297
245 247 250 252 253 255 257 259 259 260 260 261 262 264 266 267 269 271 273 273 274 276 278 280 283 286 289 292 293 295 296 297 297 298 299 300 299 299 298 297 297 296 295
244 248 251 252 252 253 255 256 256 258 260 263 264 265 266 267 269 270 272 273 275 276 278 280 283 286 290 292 293 294 295 296 296 297 298 297 298 297 297 296 296 295 293
247 248 250 252 252 253 255 257 257 260 263 265 265 266 267 268 268 271 272 274 275 276 279 281 284 287 289 290 291 292 293 294 295 296 296 296 296 296 296 296 294 293 291
248 251 252 254 255 256 257 259 260 261 263 265 267 267 266 266 268 271 272 273 275 278 279 281 283 286 288 288 289 290 291 293 294 295 295 296 295 295 295 294 293 292 290
251 253 253 254 255 256 259 261 261 262 262 263 264 265 265 266 270 270 271 273 276 278 280 281 282 284 286 287 288 289 291 292 293 294 295 295 295 294 293 293 292 291 289
251 252 254 256 256 257 258 261 260 260 262 263 264 265 264 267 269 269 271 273 275 276 279 280 280 282 285 285 286 288 290 291 292 293 294 295 294 293 292 292 291 289 287
253 255 257 256 256 258 258 260 260 261 262 263 264 265 265 267 268 270 271 273 275 276 278 279 279 281 282 284 285 287 288 289 290 291 293 293 292 291 290 291 290 288 286
257 257 257 258 258 260 261 261 261 261 260 261 262 263 263 265 267 268 269 271 273 274 276 277 278 279 281 283 284 286 287 288 289 290 291 291 291 290 289 289 288 286 285
260 258 258 257 257 257 258 259 259 259 259 260 261 263 264 264 266 267 268 269 271 272 273 275 276 278 280 282 283 284 286 287 288 289 289 289 290 289 288 287 287 285 283
264 262 259 258 258 257 256 257 257 258 260 261 262 264 264 264 265 266 267 268 270 272 274 275 276 278 279 281 282 283 285 286 287 287 288 288 289 288 287 285 284 283 281
264 263 262 261 260 258 258 258 259 259 258 259 261 262 262 263 263 264 265 267 270 272 273 273 275 276 278 279 280 282 283 285 285 286 287 288 287 286 284 283 282 280 279
267 266 266 265 264 263 262 262 261 260 259 260 260 260 261 261 262 263 265 267 268 269 270 272 273 274 276 277 279 280 281 282 283 285 286 285 284 282 281 280 279 278 276
269 268 268 267 266 265 264 262 261 261 261 260 260 261 261 262 263 265 265 266 267 268 269 269 270 272 274 276 277 278 279 280 281 282 283 282 280 279 279 279 277 275 272
270 269 268 267 265 264 262 262 262 261 261 260 260 260 261 262 263 264 265 265 265 266 266 267 269 271 273 274 274 276 277 278 279 280 280 279 278 277 278 277 275 271 269
270 269 267 266 265 263 262 262 261 261 261 260 260 259 259 260 261 261 262 263 263 265 266 267 268 270 271 272 273 274 275 276 277 277 277 276 276 275 275 274 270 267 266
Height
5829 5832 5834 5836 5838 5840 5842 5843 5844 5845 5846 5847 5848 5848 5849 5849 5849 5849 5849 5849 5848 5848 5847 5846 5845 5844 5842 5841 5839 5837 5834 5832 5829 5826 5824 5820 5817 5814 5810 5807 5803 5799 5796
5823 5826 5828 5830 5832 5834 5836 5837 5838 5840 5841 5842 5843 5843 5844 5844 5844 5844 5844 5844 5843 5843 5842 5841 5840 5838 5837 5835 5833 5831 5829 5826 5824 5821 5818 5815 5811 5808 5804 5801 5797 5793 5790
5816 5819 5822 5824 5826 5828 5830 5831 5832 5834 5835 5836 5837 5838 5838 5839 5839 5839 5839 5838 5838 5837 5836 5835 5834 5833 5831 5829 5827 5825 5823 5820 5818 5815 5812 5808 5805 5802 5798 5795 5791 5787 5784
5809 5812 5815 5817 5819 5821 5823 5825 5826 5828 5829 5830 5831 5831 5832 5832 5833 5833 5833 5832 5832 5831 5830 5829 5828 5827 5825 5823 5821 5819 5817 5814 5811 5808 5805 5802 5799 5795 5792 5788 5784 5781 5777
5802 5805 5808 5810 5812 5814 5816 5818 5820 5821 5822 5823 5824 5825 5825 5826 5826 5826 5826 5826 5825 5825 5824 5823 5821 5820 5818 5816 5814 5812 5810 5807 5805 5801 5798 5795 5792 5788 5784 5781 5777 5774 5770
5794 5797 5800 5803 5805 5807 5809 5811 5812 5814 5815 5816 5817 5818 5818 5819 5819 5819 5819 5819 5818 5818 5817 5816 5815 5813 5811 5809 5807 5805 5803 5800 5797 5794 5791 5787 5784 5780 5777 5773 5770 5766 5763
5786 5789 5792 5795 5797 5800 5801 5803 5805 5806 5807 5808 5809 5810 5811 5812 5812 5812 5812 5811 5811 5810 5809 5808 5807 5806 5804 5802 5800 5797 5795 5792 5789 5786 5783 5779 5776 5772 5769 5765 5762 5758 5755
5777 5781 5784 5787 5789 5791 5793 5795 5796 5798 5799 5801 5801 5802 5803 5804 5804 5804 5804 5803 5803 5802 5801 5800 5799 5798 5796 5794 5792 5789 5787 5784 5781 5778 5775 5771 5768 5764 5761 5757 5754 5751 5748
5768 5771 5775 5777 5780 5782 5784 5786 5788 5789 5790 5791 5792 5793 5794 5795 5796 5796 5795 5795 5794 5794 5793 5792 5790 5789 5788 5786 5783 5781 5778 5775 5772 5769 5766 5762 5759 5755 5752 5748 5745 5742 5739
5758 5762 5765 5768 5771 5773 5775 5777 5778 5780 5781 5782 5783 5784 5785 5785 5786 5787 5787 5786 5785 5785 5784 5783 5781 5780 5778 5777 5774 5772 5769 5766 5763 5760 5756 5753 5750 5746 5743 5739 5736 5733 5731
5749 5752 5755 5758 5761 5763 5766 5767 5769 5770 5771 5772 5773 5774 5774 5775 5776 5777 5777 5777 5776 5775 5774 5773 5772 5770 5769 5767 5765 5762 5760 5757 5753 5750 5746 5743 5740 5737 5733 5730 5727 5724 5722
5738 5742 5745 5748 5751 5753 5755 5757 5758 5760 5761 5762 5763 5764 5764 5765 5766 5766 5767 5767 5767 5766 5765 5764 5762 5761 5759 5757 5755 5753 5750 5747 5744 5740 5737 5734 5730 5727 5724 5720 5718 5715 5712
5729 5732 5735 5737 5740 5742 5744 5746 5747 5749 5750 5751 5752 5753 5754 5755 5755 5755 5756 5756 5756 5756 5755 5754 5752 5751 5749 5748 5745 5742 5739 5736 5733 5730 5727 5724 5720 5717 5714 5711 5708 5705 5703
5719 5722 5724 5727 5729 5731 5733 5734 5736 5738 5739 5740 5742 5742 5743 5744 5744 5744 5745 5745 5745 5745 5744 5743 5742 5740 5738 5737 5735 5732 5729 5726 5723 5720 5717 5713 5710 5706 5703 5701 5698 5696 5694
5708 5711 5714 5716 5718 5720 5722 5723 5724 5726 5728 5729 5730 5731 5732 5732 5732 5733 5734 5734 5735 5734 5734 5733 5731 5729 5727 5726 5724 5722 5719 5716 5713 5710 5706 5703 5700 5697 5694 5691 5689 5686 5685
5698 5700 5703 5705 5707 5709 5710 5711 5713 5715 5716 5717 5718 5719 5720 5720 5721 5722 5722 5722 5722 5722 5722 5722 5720 5718 5716 5714 5713 5711 5708 5705 5702 5699 5696 5693 5690 5687 5684 5682 5679 5677 5676
5687 5689 5691 5693 5695 5697 5698 5699 5701 5703 5704 5705 5706 5707 5708 5709 5710 5710 5711 5711 5711 5710 5710 5710 5708 5707 5705 5704 5702 5700 5697 5694 5691 5689 5686 5683 5680 5677 5675 5673 5671 5669 5667
5676 5678 5679 5681 5683 5685 5686 5687 5688 5689 5691 5692 5693 5695 5696 5697 5698 5698 5698 5699 5699 5698 5698 5698 5697 5695 5694 5693 5691 5689 5686 5684 5681 5678 5675 5673 5670 5668 5666 5664 5662 5660 5659
5663 5665 5667 5668 5670 5672 5673 5674 5675 5677 5678 5679 5680 5681 5683 5684 5685 5686 5686 5686 5686 5686 5686 5686 5685 5684 5683 5681 5680 5677 5675 5673 5670 5668 5665 5663 5661 5658 5656 5655 5653 5652 5652
5650 5651 5653 5654 5656 5657 5659 5660 5661 5663 5664 5665 5667 5668 5669 5671 5672 5673 5673 5673 5673 5673 5673 5673 5673 5672 5671 5670 5668 5666 5664 5662 5660 5658 5655 5653 5651 5649 5648 5646 5645 5645 5644
5637 5638 5639 5640 5641 5643 5645 5646 5647 5648 5650 5651 5653 5654 5656 5657 5658 5659 5660 5660 5661 5661 5661 5661 5661 5660 5659 5658 5657 5656 5654 5652 5650 5648 5646 5644 5642 5641 5640 5638 5638 5637 5637
5623 5624 5625 5626 5627 5628 5630 5631 5632 5634 5635 5637 5638 5639 5641 5642 5644 5645 5646 5647 5648 5649 5649 5649 5649 5649 5648 5647 5646 5645 5643 5642 5640 5639 5637 5635 5634 5633 5632 5631 5630 5630 5630
5609 5610 5610 5611 5612 5613 5614 5615 5617 5619 5621 5622 5624 5625 5627 5628 5630 5631 5632 5634 5635 5636 5637 5637 5637 5637 5636 5636 5635 5634 5633 5632 5630 5629 5627 5626 5626 5625 5624 5623 5623 5623 5623
5595 5595 5596 5597 5598 5599 5600 5601 5602 5604 5606 5608 5610 5611 5613 5615 5616 5618 5619 5621 5622 5623 5624 5625 5625 5625 5625 5624 5624 5623 5622 5622 5621 5620 5618 5618 5617 5617 5616 5616 5615 5615 5616
5581 5581 5581 5582 5583 5585 5586 5587 5588 5590 5591 5593 5595 5597 5599 5601 5603 5605 5607 5608 5609 5610 5611 5612 5613 5613 5613 5613 5613 5613 5612 5612 5611 5610 5610 5609 5609 5608 5608 5608 5608 5608 5609
5568 5567 5567 5568 5569 5570 5572 5572 5573 5575 5577 5579 5580 5582 5585 5587 5589 5591 5594 5596 5597 5598 5599 5600 5601 5602 5602 5602 5602 5602 5602 5602 5601 5601 5601 5601 5600 5600 5600 5600 5601 5601 5601